Volver al catálogo

FENGYUN 1C DEB

ActivoPO
NORAD 30123·DEBRIS·🇨🇳 China

Lanzado May 10, 1999 desde Taiyuan Satellite Launch Center

Loading…

Próximos Pases (próximas 24 horas)

TLE

ActualizadoSource: Space-Track

Época: Sep 14, 2026, 11:58 UTC

1 30123U 99025SC  26257.49894908  .00002050  00000-0  64686-3 0  9997
2 30123  96.9190 146.1181 0224502 323.3447  35.2556 14.27662788 11782

Sigue FENGYUN 1C DEB en tiempo real con AllMySat

Download on the App Store